Date String (YYYY-MM-DD hh:mm:ss) UTC,Instrument flags,Ambient pressure (hPa),Sample flow (lpm),Bypass flow (lpm),Sample temperature (°C),Ambient temperature (°C),ASC tube jacket temperature (°C),LED temperature (°C),Box temperature (°C),Sample RH (%),Span deviation,Mass concentration (μg/m³),Mass concentration (μg/m³),Mass concentration (μg/m³)
DateTimeUTC,F1_M11,P_M11,Q1_M11,Q2_M11,T1_M11,T2_M11,T3_M11,T4_M11,T5_M11,U1_M11,ZSPAN_M11,X2_M11,X0_M11,X1_M11
2022-06-20 23:00:00,,0824.1,5.00,0.00,29.2,27.9,00.0,37.9,31.2,06.7,0000.0,0003.99,0008.58,0003.22
2022-06-20 23:01:00,,0824.1,4.99,0.00,29.2,28.1,00.0,37.9,31.2,06.7,0000.0,0003.95,0008.46,0003.21
2022-06-20 23:02:00,,0824.1,4.99,0.00,29.3,28.2,00.0,38.0,31.3,07.0,0000.0,0003.90,0008.33,0003.21
2022-06-20 23:03:00,,0824.1,4.99,0.00,29.3,28.4,00.0,38.0,31.3,07.2,0000.0,0003.87,0008.29,0003.20
2022-06-20 23:04:00,,0824.0,5.00,0.00,29.4,28.4,00.0,38.0,31.4,07.3,0000.0,0003.80,0008.22,0003.19
2022-06-20 23:05:00,,0824.0,5.00,0.00,29.3,27.8,00.0,38.0,31.2,07.0,0000.0,0003.82,0008.33,0003.18
2022-06-20 23:06:00,,0824.0,4.99,0.00,29.3,27.0,00.0,37.9,31.0,06.8,0000.0,0003.81,0008.53,0003.18
2022-06-20 23:07:00,,0824.1,5.00,0.00,29.2,26.9,00.0,37.9,31.0,06.9,0000.0,0003.86,0008.90,0003.19
2022-06-20 23:08:00,,0824.1,5.00,0.00,29.2,27.0,00.0,37.9,31.0,06.9,0000.0,0003.85,0008.74,0003.19
2022-06-20 23:09:00,,0824.2,5.00,0.00,29.2,27.2,00.0,37.9,31.0,07.0,0000.0,0003.85,0009.47,0003.18
2022-06-20 23:10:00,,0824.1,5.00,0.00,29.2,27.4,00.0,37.9,31.0,07.2,0000.0,0003.89,0009.74,0003.17
2022-06-20 23:11:00,,0824.1,4.99,0.00,29.2,27.6,00.0,37.9,31.1,07.2,0000.0,0003.89,0009.71,0003.18
2022-06-20 23:12:00,,0824.2,5.00,0.00,29.2,27.9,00.0,37.9,31.2,06.9,0000.0,0003.90,0009.84,0003.17
2022-06-20 23:13:00,,0824.1,5.01,0.00,29.2,28.0,00.0,38.0,31.2,07.1,0000.0,0003.96,0010.43,0003.16
2022-06-20 23:14:00,,0824.2,5.00,0.00,29.3,28.2,00.0,38.0,31.3,06.9,0000.0,0003.96,0010.64,0003.16
2022-06-20 23:15:00,,0824.2,5.00,0.00,29.3,28.4,00.0,38.0,31.3,07.0,0000.0,0003.95,0010.61,0003.16
2022-06-20 23:16:00,,0824.1,5.01,0.00,29.3,28.5,00.0,38.0,31.4,07.0,0000.0,0003.97,0010.23,0003.15
2022-06-20 23:17:00,,0824.1,4.99,0.00,29.4,28.1,00.0,38.0,31.3,06.7,0000.0,0003.95,0009.64,0003.15
2022-06-20 23:18:00,,0824.1,4.99,0.00,29.3,27.2,00.0,37.9,31.1,06.6,0000.0,0003.93,0009.15,0003.15
2022-06-20 23:19:00,,0824.1,5.01,0.00,29.2,27.0,00.0,37.9,31.0,06.8,0000.0,0003.92,0009.36,0003.14
2022-06-20 23:20:00,,0823.9,5.01,0.00,29.2,27.0,00.0,37.9,31.0,06.9,0000.0,0003.93,0008.99,0003.14
2022-06-20 23:21:00,,0824.2,4.99,0.00,29.2,27.2,00.0,37.9,31.0,06.8,0000.0,0003.92,0008.75,0003.14
2022-06-20 23:22:00,,0824.1,5.01,0.00,29.1,27.4,00.0,37.9,31.0,06.7,0000.0,0003.97,0008.92,0003.14
2022-06-20 23:23:00,,0824.1,5.00,0.00,29.2,27.6,00.0,37.9,31.1,06.8,0000.0,0004.03,0009.02,0003.16
2022-06-20 23:24:00,,0824.2,5.01,0.00,29.2,27.8,00.0,37.9,31.1,06.9,0000.0,0004.06,0008.72,0003.17
2022-06-20 23:25:00,,0824.1,5.00,0.00,29.2,28.0,00.0,38.0,31.2,07.0,0000.0,0004.10,0008.87,0003.16
2022-06-20 23:26:00,,0824.2,5.00,0.00,29.3,28.2,00.0,38.0,31.3,06.8,0000.0,0004.13,0009.21,0003.17
2022-06-20 23:27:00,,0824.2,4.99,0.00,29.3,28.3,00.0,38.0,31.3,06.5,0000.0,0004.13,0009.25,0003.18
2022-06-20 23:28:00,,0824.2,5.01,0.00,29.3,28.5,00.0,38.0,31.4,06.5,0000.0,0004.13,0009.24,0003.18
2022-06-20 23:29:00,,0824.1,4.99,0.00,29.4,28.5,00.0,38.0,31.4,06.9,0000.0,0004.13,0009.31,0003.17
2022-06-20 23:30:00,,0824.1,5.00,0.00,29.4,27.9,00.0,38.0,31.2,07.1,0000.0,0004.12,0009.29,0003.17
2022-06-20 23:31:00,,0824.1,5.00,0.00,29.3,27.2,00.0,37.9,31.0,07.1,0000.0,0004.13,0009.00,0003.16
2022-06-20 23:32:00,,0824.1,4.99,0.00,29.2,27.1,00.0,37.9,31.0,06.9,0000.0,0004.18,0009.24,0003.16
2022-06-20 23:33:00,,0824.0,4.99,0.00,29.2,27.2,00.0,37.9,31.0,07.0,0000.0,0004.18,0009.60,0003.15
2022-06-20 23:34:00,,0824.1,4.99,0.00,29.2,27.3,00.0,37.9,31.0,06.9,0000.0,0004.20,0010.60,0003.12
2022-06-20 23:35:00,,0824.1,5.01,0.00,29.2,27.5,00.0,37.9,31.1,06.9,0000.0,0004.22,0010.85,0003.11
2022-06-20 23:36:00,,0824.2,5.00,0.00,29.2,27.7,00.0,37.9,31.1,07.0,0000.0,0004.25,0011.36,0003.10
2022-06-20 23:37:00,,0824.2,5.01,0.00,29.2,27.9,00.0,38.0,31.2,07.0,0000.0,0004.25,0011.84,0003.08
2022-06-20 23:38:00,,0824.2,5.00,0.00,29.3,28.1,00.0,38.0,31.2,07.0,0000.0,0004.25,0012.16,0003.05
2022-06-20 23:39:00,,0824.2,4.99,0.00,29.3,28.2,00.0,38.0,31.3,07.0,0000.0,0004.31,0012.83,0003.03
2022-06-20 23:40:00,,0824.3,5.02,0.00,29.3,28.4,00.0,38.0,31.3,07.1,0000.0,0004.38,0013.15,0003.02
2022-06-20 23:41:00,,0824.4,4.99,0.00,29.4,28.5,00.0,38.0,31.4,07.3,0000.0,0004.47,0013.17,0003.03
2022-06-20 23:42:00,,0824.4,5.00,0.00,29.4,28.1,00.0,38.0,31.3,07.2,0000.0,0004.48,0013.15,0003.04
2022-06-20 23:43:00,,0824.3,5.01,0.00,29.3,27.2,00.0,37.9,31.0,07.2,0000.0,0004.43,0013.14,0003.03
2022-06-20 23:44:00,,0824.4,4.99,0.00,29.2,27.0,00.0,37.9,30.9,07.1,0000.0,0004.39,0013.22,0003.02
2022-06-20 23:45:00,,0824.4,4.99,0.00,29.2,27.0,00.0,37.9,30.9,07.2,0000.0,0004.36,0012.38,0003.02
2022-06-20 23:46:00,,0824.4,5.00,0.00,29.2,27.2,00.0,37.9,31.0,07.4,0000.0,0004.29,0012.06,0003.01
2022-06-20 23:47:00,,0824.5,4.99,0.00,29.1,27.4,00.0,37.9,31.0,07.4,0000.0,0004.29,0011.58,0003.01
2022-06-20 23:48:00,,0824.4,4.99,0.00,29.2,27.6,00.0,37.9,31.1,07.5,0000.0,0004.28,0010.78,0003.01
2022-06-20 23:49:00,,0824.4,5.01,0.00,29.2,27.8,00.0,37.9,31.1,07.4,0000.0,0004.29,0010.46,0003.02
2022-06-20 23:50:00,,0824.4,5.00,0.00,29.2,28.0,00.0,37.9,31.2,07.4,0000.0,0004.25,0010.22,0003.01
2022-06-20 23:51:00,,0824.3,5.00,0.00,29.2,28.1,00.0,38.0,31.2,07.5,0000.0,0004.14,0009.83,0002.99
2022-06-20 23:52:00,,0824.3,5.00,0.00,29.3,28.3,00.0,38.0,31.3,07.4,0000.0,0004.15,0010.71,0002.98
2022-06-20 23:53:00,,0824.3,5.00,0.00,29.3,28.4,00.0,38.0,31.4,07.1,0000.0,0004.21,0011.00,0002.97
2022-06-20 23:54:00,,0824.4,4.99,0.00,29.4,28.5,00.0,38.0,31.4,07.1,0000.0,0004.21,0010.93,0002.94
2022-06-20 23:55:00,,0824.3,4.99,0.00,29.4,27.9,00.0,38.0,31.3,07.2,0000.0,0004.26,0010.68,0002.92
2022-06-20 23:56:00,,0824.3,5.00,0.00,29.3,27.1,00.0,37.9,31.1,07.2,0000.0,0004.27,0010.47,0002.91
2022-06-20 23:57:00,,0824.3,5.00,0.00,29.2,26.9,00.0,37.9,31.0,07.2,0000.0,0004.34,0010.76,0002.91
2022-06-20 23:58:00,,0824.4,5.01,0.00,29.2,27.0,00.0,37.9,31.0,07.3,0000.0,0004.40,0011.02,0002.91
2022-06-20 23:59:00,,0824.3,4.99,0.00,29.2,27.2,00.0,37.9,31.0,07.5,0000.0,0004.45,0011.18,0002.90
